Weather History for Forest City, IA

Change the Weather History Date:

Thursday, April 17, 2014

  Actual Average Record
Temperature  
Mean Temperature 34 °F -  
Max Temperature 41 °F 61 °F 64 °F (2012)
Min Temperature 28 °F 38 °F 28 °F (2014)
Degree Days  
Heating Degree Days 30    
Moisture  
Dew Point 31 °F    
Average Humidity 90    
Maximum Humidity 100    
Minimum Humidity 70    
Precipitation  
Precipitation 0.00 in - - ()
Sea Level Pressure  
Sea Level Pressure 30.19 in    
Wind  
Wind Speed 15 mph (NW)    
Max Wind Speed 23 mph    
Max Gust Speed 32 mph    
Visibility 9 miles    
Events Fog    
Averages and records for this station are not official NWS values.
T = Trace of Precipitation, MM = Missing Value Source: NWS Daily Summary

Daily Weather History Graph

Daily Weather History Graph

Search for Another Location

Airport:

Trip Planner

Search our weather history database for the weather conditions in past years. The results will help you decide how hot, cold, wet, or windy it might be!

Date:

Astronomy

Apr. 17, 2014 Rise Set
Actual Time 6:29 AM CDT 7:59 PM CDT
Civil Twilight 5:59 AM CDT 8:29 PM CDT
Nautical Twilight 5:23 AM CDT 9:05 PM CDT
Astronomical Twilight 4:44 AM CDT 9:44 PM CDT
Moon 10:49 PM CDT (4/17) 7:58 AM CDT (4/17)
Length of Visible Light 14h 30m
Length of Day
13h 30m
Waning Gibbous, 93% of the Moon is Illuminated
Apr 17
Waning Gibbous
Apr 22
Last Quarter
Apr 29
New
May 6
First Quarter
May 14
Full

Hourly Weather History & Observations

Time (CDT) Temp. Windchill Dew Point Humidity Pressure Visibility Wind Dir Wind Speed Gust Speed Precip Events Conditions
12:15 AM 32.0 °F 19.5 °F 32.0 °F 100% 29.89 in 10.0 mi NW 21.9 mph 31.1 mph N/A   Overcast
12:35 AM 32.0 °F 20.5 °F 32.0 °F 100% 29.91 in 10.0 mi NW 18.4 mph 27.6 mph N/A   Overcast
12:55 AM 32.0 °F 19.5 °F 32.0 °F 100% 29.93 in 10.0 mi NW 21.9 mph 32.2 mph N/A   Overcast
1:15 AM 32.0 °F 19.8 °F 32.0 °F 100% 29.94 in 10.0 mi NW 20.7 mph 29.9 mph N/A   Overcast
1:35 AM 32.0 °F 19.5 °F 32.0 °F 100% 29.95 in 10.0 mi NW 21.9 mph 29.9 mph N/A   Overcast
1:55 AM 32.0 °F 19.5 °F 32.0 °F 100% 29.95 in 10.0 mi NW 21.9 mph 28.8 mph N/A   Overcast
2:15 AM 32.0 °F 20.5 °F 32.0 °F 100% 29.97 in 10.0 mi NW 18.4 mph 31.1 mph N/A   Overcast
2:35 AM 32.0 °F 20.1 °F 32.0 °F 100% 29.99 in 10.0 mi NW 19.6 mph 28.8 mph N/A   Overcast
2:55 AM 32.0 °F 20.1 °F 32.0 °F 100% 30.00 in 10.0 mi NW 19.6 mph 27.6 mph N/A   Overcast
3:15 AM 32.0 °F 19.2 °F 30.2 °F 93% 30.00 in 10.0 mi NW 23.0 mph 29.9 mph N/A   Overcast
3:35 AM 32.0 °F 20.8 °F 30.2 °F 93% 30.02 in 10.0 mi NW 17.3 mph 28.8 mph N/A   Overcast
3:55 AM 32.0 °F 20.1 °F 30.2 °F 93% 30.04 in 10.0 mi NW 19.6 mph 26.5 mph N/A   Overcast
4:15 AM 32.0 °F 20.5 °F 30.2 °F 93% 30.04 in 10.0 mi NW 18.4 mph 29.9 mph N/A   Overcast
4:35 AM 32.0 °F 20.1 °F 30.2 °F 93% 30.04 in 10.0 mi NW 19.6 mph 28.8 mph N/A   Overcast
4:55 AM 32.0 °F 20.5 °F 30.2 °F 93% 30.06 in 10.0 mi NW 18.4 mph 29.9 mph N/A   Overcast
5:15 AM 32.0 °F 23.0 °F 30.2 °F 93% 30.08 in 10.0 mi NW 11.5 mph 24.2 mph N/A   Overcast
5:35 AM 32.0 °F 20.8 °F 30.2 °F 93% 30.09 in 10.0 mi NW 17.3 mph 27.6 mph N/A   Overcast
5:55 AM 32.0 °F 20.8 °F 30.2 °F 93% 30.09 in 10.0 mi NW 17.3 mph 25.3 mph N/A   Overcast
6:15 AM 32.0 °F 20.1 °F 30.2 °F 93% 30.09 in 10.0 mi NNW 19.6 mph 28.8 mph N/A   Overcast
6:35 AM 32.0 °F 20.8 °F 30.2 °F 93% 30.09 in 10.0 mi NNW 17.3 mph 23.0 mph N/A   Overcast
6:55 AM 30.2 °F 18.9 °F 30.2 °F 100% 30.11 in 10.0 mi NNW 16.1 mph 24.2 mph N/A   Overcast
7:15 AM 30.2 °F 19.8 °F 30.2 °F 100% 30.14 in 10.0 mi NW 13.8 mph 24.2 mph N/A   Overcast
7:35 AM 30.2 °F 19.8 °F 30.2 °F 100% 30.16 in 10.0 mi NW 13.8 mph - N/A   Overcast
7:55 AM 32.0 °F 23.0 °F 30.2 °F 93% 30.18 in 10.0 mi NW 11.5 mph 17.3 mph N/A   Overcast
8:15 AM 32.0 °F 23.6 °F 30.2 °F 93% 30.20 in 10.0 mi WNW 10.4 mph - N/A   Overcast
8:35 AM 32.0 °F 23.0 °F 30.2 °F 93% 30.20 in 10.0 mi WNW 11.5 mph - N/A   Overcast
8:55 AM 32.0 °F 23.0 °F 28.4 °F 87% 30.22 in 10.0 mi WNW 11.5 mph 17.3 mph N/A   Overcast
9:15 AM 32.0 °F 22.1 °F 30.2 °F 93% 30.23 in 10.0 mi WNW 13.8 mph - N/A   Overcast
9:35 AM 32.0 °F 22.1 °F 30.2 °F 93% 30.24 in 10.0 mi WNW 13.8 mph - N/A   Overcast
9:55 AM 32.0 °F 21.6 °F 30.2 °F 93% 30.24 in 10.0 mi NW 15.0 mph 18.4 mph N/A   Overcast
10:15 AM 32.0 °F 22.5 °F 30.2 °F 93% 30.25 in 10.0 mi WNW 12.7 mph 17.3 mph N/A   Overcast
10:35 AM 32.0 °F 21.6 °F 30.2 °F 93% 30.26 in 10.0 mi WNW 15.0 mph 21.9 mph N/A   Overcast
10:55 AM 32.0 °F 22.5 °F 30.2 °F 93% 30.26 in 10.0 mi NW 12.7 mph - N/A   Overcast
11:15 AM 32.0 °F 23.0 °F 30.2 °F 93% 30.27 in 10.0 mi NW 11.5 mph - N/A   Overcast
11:35 AM 32.0 °F 23.6 °F 30.2 °F 93% 30.27 in 10.0 mi WNW 10.4 mph - N/A   Overcast
11:55 AM 32.0 °F 22.5 °F 30.2 °F 93% 30.26 in 10.0 mi NW 12.7 mph 18.4 mph N/A   Overcast
12:15 PM 32.0 °F 23.0 °F 30.2 °F 93% 30.27 in 10.0 mi WNW 11.5 mph - N/A   Overcast
12:35 PM 32.0 °F 24.2 °F 28.4 °F 87% 30.28 in 10.0 mi NNW 9.2 mph - N/A   Overcast
12:55 PM 32.0 °F 24.8 °F 28.4 °F 87% 30.28 in 10.0 mi NW 8.1 mph - N/A   Overcast
1:15 PM 32.0 °F 24.2 °F 30.2 °F 93% 30.28 in 10.0 mi NW 9.2 mph - N/A   Overcast
1:35 PM 33.8 °F 26.4 °F 30.2 °F 87% 30.28 in 10.0 mi NW 9.2 mph - N/A   Overcast
1:55 PM 35.6 °F 29.9 °F 30.2 °F 81% 30.28 in 10.0 mi NNW 6.9 mph - N/A   Overcast
2:15 PM 35.6 °F 29.9 °F 30.2 °F 81% 30.29 in 10.0 mi NW 6.9 mph - N/A   Overcast
2:35 PM 35.6 °F 28.6 °F 30.2 °F 81% 30.29 in 10.0 mi NW 9.2 mph - N/A   Overcast
2:55 PM 35.6 °F 29.9 °F 30.2 °F 81% 30.28 in 10.0 mi NNW 6.9 mph - N/A   Overcast
3:15 PM 37.4 °F 30.8 °F 32.0 °F 81% 30.28 in 10.0 mi NNW 9.2 mph - N/A   Mostly Cloudy
3:35 PM 39.2 °F 32.5 °F 32.0 °F 75% 30.28 in 10.0 mi North 10.4 mph - N/A   Mostly Cloudy
3:55 PM 39.2 °F 33.0 °F 32.0 °F 75% 30.28 in 10.0 mi NW 9.2 mph 17.3 mph N/A   Mostly Cloudy
4:15 PM 41.0 °F 34.7 °F 32.0 °F 70% 30.28 in 10.0 mi NW 10.4 mph 17.3 mph N/A   Mostly Cloudy
4:35 PM 41.0 °F 34.3 °F 32.0 °F 70% 30.28 in 10.0 mi North 11.5 mph - N/A   Scattered Clouds
4:55 PM 41.0 °F 35.2 °F 32.0 °F 70% 30.27 in 10.0 mi NNW 9.2 mph - N/A   Clear
5:15 PM 41.0 °F 35.2 °F 32.0 °F 70% 30.27 in 10.0 mi North 9.2 mph - N/A   Scattered Clouds
5:35 PM 41.0 °F 35.2 °F 32.0 °F 70% 30.27 in 10.0 mi NNW 9.2 mph - N/A   Scattered Clouds
5:55 PM 41.0 °F 36.4 °F 32.0 °F 70% 30.27 in 10.0 mi NNW 6.9 mph - N/A   Scattered Clouds
6:15 PM 41.0 °F 34.7 °F 32.0 °F 70% 30.27 in 10.0 mi NW 10.4 mph - N/A   Clear
6:35 PM 41.0 °F 36.4 °F 32.0 °F 70% 30.27 in 10.0 mi North 6.9 mph - N/A   Clear
6:55 PM 39.2 °F 33.0 °F 32.0 °F 75% 30.27 in 10.0 mi North 9.2 mph - N/A   Scattered Clouds
7:15 PM 39.2 °F 34.2 °F 32.0 °F 75% 30.27 in 10.0 mi North 6.9 mph - N/A   Scattered Clouds
7:35 PM 37.4 °F 32.8 °F 32.0 °F 81% 30.27 in 10.0 mi North 5.8 mph - N/A   Clear
7:55 PM 35.6 °F 31.7 °F 32.0 °F 87% 30.28 in 10.0 mi NNE 4.6 mph - N/A   Clear
8:15 PM 33.8 °F - 32.0 °F 93% 30.28 in 10.0 mi Calm Calm - N/A   Clear
8:35 PM 33.8 °F - 32.0 °F 93% 30.29 in 10.0 mi Calm Calm - N/A   Clear
8:55 PM 33.8 °F 30.8 °F 32.0 °F 93% 30.30 in 10.0 mi NE 3.5 mph - N/A   Clear
9:15 PM 32.0 °F - 30.2 °F 93% 30.30 in 10.0 mi Calm Calm - N/A   Clear
9:35 PM 30.2 °F - 30.2 °F 100% 30.30 in 5.0 mi Calm Calm - N/A   Clear
9:55 PM 30.2 °F - 30.2 °F 100% 30.30 in 4.0 mi Calm Calm - N/A   Clear
10:15 PM 30.2 °F - 30.2 °F 100% 30.31 in 4.0 mi Calm Calm - N/A   Clear
10:35 PM 30.2 °F - 30.2 °F 100% 30.31 in 4.0 mi Calm Calm - N/A   Clear
10:55 PM 28.4 °F - 28.4 °F 100% 30.31 in 1.5 mi Calm Calm - N/A   Mist
11:15 PM 28.4 °F - 28.4 °F 100% 30.31 in 1.0 mi Calm Calm - N/A   Mist
11:35 PM 28.4 °F - 28.4 °F 100% 30.30 in 0.5 mi Calm Calm - N/A Fog Light Freezing Fog
11:55 PM 28.4 °F - 28.4 °F 100% 30.30 in 1.5 mi Calm Calm - N/A   Mist